Regional Weather Roundup
Issued by NWS

Home | Current Version | Previous Version | Graphics & Text | Print | Product List | Glossary On
Versions: 1 2 3 4 5 6 7 8 9 10 11 12 13 14 15 16 17 18 19 20 21 22 23 24 25 26 27 28 29 30 31 32 33 34 35 36 37 38 39 40 41 42 43 44 45 46 47 48 49 50
000
ASUS43 KLSX 220307
RWRMO

WEATHER SUMMARY FOR MISSOURI
NATIONAL WEATHER SERVICE SPRINGFIELD MO
1000 PM CDT SUN SEP 21 2014

NOTE: "FAIR" INDICATES FEW OR NO CLOUDS BELOW 12,000 FEET WITH NO
       SIGNIFICANT WEATHER AND/OR OBSTRUCTIONS TO VISIBILITY.
       CURRENT SKY AND/OR WEATHER CONDITIONS ARE NOT AVAILABLE FOR
       CHILLICOTHE AND FARMINGTON.

MOZ001>031-035>038-043-044-053-054-220400-
...NORTHERN AND WESTERN MISSOURI...

CITY           SKY/WX    TMP DP  RH WIND       PRES   REMARKS
KANSAS CTY INT CLEAR     59  49  69 N8        30.23R
KANSAS C DTWN  CLEAR     63  50  62 N5        30.22R
LEE`S SUMMIT   CLEAR     61  49  64 N5        30.23R
ST JOSEPH      CLEAR     52  49  89 N6        30.24R
CHILLICOTHE      N/A     56  52  86 CALM      30.23R
KIRKSVILLE     CLEAR     52  49  89 NW3       30.22R

$$
MOZ066>068-077>081-088>096-101>105-220400-
...SOUTHWEST MISSOURI...

CITY           SKY/WX    TMP DP  RH WIND       PRES   REMARKS
SPRINGFIELD    CLEAR     60  51  72 N6        30.19R
JOPLIN         CLEAR     64  50  60 N7        30.21R

$$
MOZ032>034-039>042-045>050-055>058-069>072-220400-
...CENTRAL MISSOURI...

CITY           SKY/WX    TMP DP  RH WIND       PRES   REMARKS
COLUMBIA       CLEAR     57  50  77 N7        30.19R
JEFFERSON CITY CLEAR     62  49  62 N7        30.18R
ROLLA          CLEAR     58  48  69 N7        30.17R
SEDALIA        CLEAR     60  50  69 N3        30.21R
WHITEMAN AFB   CLEAR     58  51  77 N3        30.21R HAZE
OSAGE BEACH    CLEAR     61  48  63 N5        30.19R

$$
MOZ051-052-059>065-220400-
...EAST CENTRAL MISSOURI...

CITY           SKY/WX    TMP DP  RH WIND       PRES   REMARKS
ST LOUIS INTL  CLEAR     64  51  62 N8        30.16R
SPIRIT OF STL  CLEAR     59  51  75 CALM      30.16R
ST CHARLES     CLEAR     61  51  70 N9        30.16R

$$
MOZ072>076-082>087-097>100-106>115-220400-
...SOUTH CENTRAL AND SOUTHEAST MISSOURI...

CITY           SKY/WX    TMP DP  RH WIND       PRES   REMARKS
CAPE GIRARDEAU CLEAR     64  50  60 N7        30.10R
FARMINGTON     CLEAR     63  46  55 N8        30.16R
POPLAR BLUFF   CLEAR     63  50  62 N6        30.10R
WEST PLAINS    CLEAR     62  49  62 N5        30.17R

$$


USA.gov is the U.S. government's official web portal to all federal, state and local government web resources and services.